Location: Kolin
(50.0330°N, 15.2000°E)
Time: 07:30:40
(UTC+01:00)

ISS - Pass Details

Date: 24 November 2019
Orbit: 411 x 421 km, 51.6° (Epoch: 12 December)

Event Time Altitude Azimuth Distance (km) Brightness Sun altitude
Rises 16:50:24 0° 189° (S) 2,342 0.5 -7.2°
Reaches altitude 10° 16:53:59 10° 148° (SSE) 1,489 -1.1 -7.7°
Maximum altitude 16:54:44 11° 135° (SE) 1,456 -1.2 -7.8°
Drops below altitude 10° 16:55:28 10° 122° (ESE) 1,491 -1.3 -7.9°
Enters shadow 16:56:52 - 101° (ESE) 1,722 -1.1 -8.2°
